• Em Portugal
  • Lista de países
  • Para 7 dias
  • Temperatura da água
  • Mapas de satélite
  • Mapa do tempo
  • Widgets de tempo
  • user-avatar
    Iniciar Sessão

    Previsão horária em São Luis

    Hoje, 24 Fevereiro, Sábado

    Tempo Temperatura Precipitação Vento Pressão Humidade
    00:00 +20°C° 0,3 mm 3 m/s 701 mmHg 65%
    01:00 +19°C° 0,3 mm 3 m/s 701 mmHg 68%
    02:00 +19°C° 0 mm 2 m/s 701 mmHg 69%
    03:00 +19°C° 0,2 mm 2 m/s 701 mmHg 70%
    04:00 +18°C° 0,2 mm 2 m/s 701 mmHg 71%
    05:00 +18°C° 0,2 mm 2 m/s 701 mmHg 73%
    06:00 +19°C° 0 mm 2 m/s 701 mmHg 71%
    07:00 +19°C° 0 mm 2 m/s 701 mmHg 69%
    08:00 +18°C° 0 mm 2 m/s 702 mmHg 72%
    09:00 +19°C° 0,1 mm 2 m/s 702 mmHg 70%
    10:00 +20°C° 0,1 mm 2 m/s 702 mmHg 67%
    11:00 +21°C° 0,1 mm 1 m/s 702 mmHg 65%
    12:00 +21°C° 0,3 mm 2 m/s 701 mmHg 62%
    13:00 +23°C° 0,3 mm 2 m/s 701 mmHg 60%
    14:00 +24°C° 0,3 mm 2 m/s 701 mmHg 57%
    15:00 +25°C° 0,5 mm 2 m/s 701 mmHg 53%
    16:00 +26°C° 0,5 mm 3 m/s 700 mmHg 48%
    17:00 +27°C° 0,5 mm 3 m/s 700 mmHg 44%
    18:00 +25°C° 0,5 mm 3 m/s 700 mmHg 49%
    19:00 +24°C° 0,5 mm 2 m/s 700 mmHg 54%
    20:00 +21°C° 0,5 mm 2 m/s 700 mmHg 60%
    21:00 +21°C° 0,5 mm 2 m/s 700 mmHg 63%
    22:00 +20°C° 0,5 mm 2 m/s 700 mmHg 65%
    23:00 +20°C° 0,5 mm 2 m/s 701 mmHg 68%

    Amanhã, 25 Fevereiro, Domingo

    Tempo Temperatura Precipitação Vento Pressão Humidade
    00:00 +19°C° 1,2 mm 2 m/s 700 mmHg 70%
    01:00 +19°C° 1,2 mm 2 m/s 700 mmHg 72%
    02:00 +19°C° 1,2 mm 2 m/s 700 mmHg 74%
    03:00 +19°C° 1,3 mm 2 m/s 700 mmHg 75%
    04:00 +19°C° 1,3 mm 2 m/s 700 mmHg 77%
    05:00 +18°C° 1,3 mm 2 m/s 700 mmHg 78%
    06:00 +20°C° 0,4 mm 3 m/s 700 mmHg 72%
    07:00 +21°C° 0,4 mm 3 m/s 701 mmHg 65%
    08:00 +24°C° 0,4 mm 3 m/s 701 mmHg 59%
    09:00 +25°C° 0,2 mm 4 m/s 701 mmHg 52%
    10:00 +27°C° 0,2 mm 4 m/s 701 mmHg 44%
    11:00 +29°C° 0,2 mm 4 m/s 702 mmHg 37%
    12:00 +29°C° 0,3 mm 4 m/s 701 mmHg 37%
    13:00 +29°C° 0,3 mm 3 m/s 701 mmHg 36%
    14:00 +29°C° 0,3 mm 3 m/s 700 mmHg 36%
    15:00 +30°C° 0,1 mm 2 m/s 700 mmHg 36%
    16:00 +30°C° 0,1 mm 2 m/s 699 mmHg 35%
    17:00 +30°C° 0,1 mm 2 m/s 699 mmHg 35%
    18:00 +28°C° 0,1 mm 2 m/s 699 mmHg 40%
    19:00 +26°C° 0,1 mm 2 m/s 699 mmHg 45%
    20:00 +24°C° 0,1 mm 2 m/s 699 mmHg 50%
    21:00 +23°C° 0,4 mm 2 m/s 699 mmHg 53%
    22:00 +22°C° 0,4 mm 3 m/s 699 mmHg 55%
    23:00 +21°C° 0,4 mm 4 m/s 699 mmHg 57%

    Depois de amanhã, 26 Fevereiro, Segunda-feira

    Tempo Temperatura Precipitação Vento Pressão Humidade
    00:00 +21°C° 0,3 mm 3 m/s 699 mmHg 59%
    01:00 +21°C° 0,3 mm 3 m/s 699 mmHg 60%
    02:00 +20°C° 0,3 mm 3 m/s 699 mmHg 62%
    03:00 +20°C° 0 mm 3 m/s 698 mmHg 61%
    04:00 +20°C° 0 mm 4 m/s 698 mmHg 59%
    05:00 +20°C° 0 mm 4 m/s 698 mmHg 58%
    06:00 +22°C° 0 mm 4 m/s 698 mmHg 54%
    07:00 +23°C° 0 mm 5 m/s 699 mmHg 49%
    08:00 +26°C° 0 mm 5 m/s 699 mmHg 44%
    09:00 +28°C° 0 mm 5 m/s 699 mmHg 39%
    10:00 +30°C° 0 mm 5 m/s 699 mmHg 35%
    11:00 +32°C° 0 mm 5 m/s 699 mmHg 30%
    12:00 +33°C° 0 mm 5 m/s 699 mmHg 29%
    13:00 +33°C° 0 mm 5 m/s 698 mmHg 28%
    14:00 +34°C° 0 mm 4 m/s 697 mmHg 27%
    15:00 +34°C° 0 mm 4 m/s 697 mmHg 26%
    16:00 +34°C° 0 mm 4 m/s 696 mmHg 26%
    17:00 +34°C° 0 mm 3 m/s 696 mmHg 26%
    18:00 +31°C° 0,1 mm 3 m/s 695 mmHg 31%
    19:00 +28°C° 0,1 mm 4 m/s 695 mmHg 36%
    20:00 +26°C° 0,1 mm 4 m/s 695 mmHg 41%
    21:00 +26°C° 0,1 mm 4 m/s 695 mmHg 43%
    22:00 +25°C° 0,1 mm 4 m/s 696 mmHg 45%
    23:00 +25°C° 0,1 mm 4 m/s 696 mmHg 47%

    27 Fevereiro, Terça-feira

    Tempo Temperatura Precipitação Vento Pressão Humidade
    00:00 +23°C° 0 mm 4 m/s 696 mmHg 47%
    01:00 +23°C° 0 mm 4 m/s 696 mmHg 47%
    02:00 +23°C° 0 mm 4 m/s 695 mmHg 48%
    03:00 +23°C° 0,2 mm 4 m/s 695 mmHg 50%
    04:00 +22°C° 0,2 mm 4 m/s 695 mmHg 53%
    05:00 +22°C° 0,2 mm 4 m/s 695 mmHg 55%
    06:00 +23°C° 0,3 mm 4 m/s 696 mmHg 54%
    07:00 +23°C° 0,3 mm 4 m/s 697 mmHg 54%
    08:00 +25°C° 0,3 mm 4 m/s 697 mmHg 53%
    09:00 +26°C° 0,4 mm 4 m/s 698 mmHg 51%
    10:00 +27°C° 0,4 mm 3 m/s 699 mmHg 50%
    11:00 +27°C° 0,4 mm 3 m/s 699 mmHg 48%
    12:00 +28°C° 0,4 mm 3 m/s 699 mmHg 47%
    13:00 +28°C° 0,4 mm 2 m/s 699 mmHg 45%
    14:00 +28°C° 0,4 mm 2 m/s 698 mmHg 43%
    15:00 +28°C° 0,2 mm 3 m/s 698 mmHg 44%
    16:00 +28°C° 0,2 mm 4 m/s 698 mmHg 46%
    17:00 +28°C° 0,2 mm 4 m/s 698 mmHg 47%
    18:00 +26°C° 0,2 mm 5 m/s 698 mmHg 54%
    19:00 +23°C° 0,2 mm 5 m/s 698 mmHg 61%
    20:00 +22°C° 0,2 mm 5 m/s 698 mmHg 68%
    21:00 +22°C° 0 mm 5 m/s 698 mmHg 68%
    22:00 +21°C° 0 mm 4 m/s 699 mmHg 68%
    23:00 +21°C° 0 mm 4 m/s 699 mmHg 68%

    28 Fevereiro, Quarta-feira

    Tempo Temperatura Precipitação Vento Pressão Humidade
    00:00 +21°C° 0,1 mm 3 m/s 699 mmHg 69%
    01:00 +21°C° 0,1 mm 2 m/s 699 mmHg 70%
    02:00 +20°C° 0,1 mm 2 m/s 698 mmHg 71%
    03:00 +20°C° 0,8 mm 2 m/s 698 mmHg 74%
    04:00 +20°C° 0,8 mm 2 m/s 698 mmHg 76%
    05:00 +19°C° 0,8 mm 2 m/s 698 mmHg 79%
    06:00 +20°C° 0,1 mm 2 m/s 699 mmHg 77%
    07:00 +20°C° 0,1 mm 2 m/s 699 mmHg 76%
    08:00 +21°C° 0,1 mm 3 m/s 699 mmHg 74%
    09:00 +21°C° 0,5 mm 3 m/s 700 mmHg 70%
    10:00 +23°C° 0,5 mm 2 m/s 700 mmHg 66%
    11:00 +24°C° 0,5 mm 2 m/s 700 mmHg 62%
    12:00 +25°C° 1,1 mm 3 m/s 699 mmHg 61%
    13:00 +25°C° 1,1 mm 3 m/s 699 mmHg 59%
    14:00 +25°C° 1,1 mm 3 m/s 699 mmHg 58%
    15:00 +25°C° 0,9 mm 3 m/s 698 mmHg 60%
    16:00 +24°C° 0,9 mm 3 m/s 698 mmHg 62%
    17:00 +24°C° 0,9 mm 3 m/s 698 mmHg 63%
    18:00 +23°C° 0,2 mm 2 m/s 698 mmHg 68%
    19:00 +21°C° 0,2 mm 2 m/s 698 mmHg 72%
    20:00 +21°C° 0,2 mm 1 m/s 698 mmHg 76%
    21:00 +21°C° 0,1 mm 1 m/s 698 mmHg 77%
    22:00 +20°C° 0,1 mm 1 m/s 698 mmHg 78%
    23:00 +20°C° 0,1 mm 1 m/s 698 mmHg 79%

    1 Março, Quinta-feira

    Tempo Temperatura Precipitação Vento Pressão Humidade
    00:00 +20°C° 0,6 mm 1 m/s 698 mmHg 80%
    01:00 +19°C° 0,6 mm 1 m/s 698 mmHg 81%
    02:00 +19°C° 0,6 mm 1 m/s 697 mmHg 82%
    03:00 +18°C° 0 mm 2 m/s 697 mmHg 82%
    04:00 +18°C° 0 mm 2 m/s 697 mmHg 82%
    05:00 +18°C° 0 mm 2 m/s 697 mmHg 81%
    06:00 +19°C° 0 mm 2 m/s 698 mmHg 77%
    07:00 +20°C° 0 mm 2 m/s 698 mmHg 73%
    08:00 +21°C° 0 mm 2 m/s 699 mmHg 68%
    09:00 +23°C° 0 mm 2 m/s 699 mmHg 62%
    10:00 +25°C° 0 mm 2 m/s 699 mmHg 55%
    11:00 +26°C° 0 mm 2 m/s 699 mmHg 48%
    12:00 +27°C° 0,1 mm 3 m/s 699 mmHg 45%
    13:00 +28°C° 0,1 mm 3 m/s 698 mmHg 42%
    14:00 +29°C° 0,1 mm 4 m/s 698 mmHg 38%
    15:00 +29°C° 0,2 mm 4 m/s 698 mmHg 38%
    16:00 +29°C° 0,2 mm 4 m/s 697 mmHg 38%
    17:00 +29°C° 0,2 mm 4 m/s 697 mmHg 38%
    18:00 +27°C° 0,2 mm 3 m/s 697 mmHg 44%
    19:00 +25°C° 0,2 mm 2 m/s 697 mmHg 50%
    20:00 +23°C° 0,2 mm 2 m/s 697 mmHg 56%
    21:00 +21°C° 0 mm 2 m/s 697 mmHg 57%
    22:00 +21°C° 0 mm 2 m/s 697 mmHg 59%
    23:00 +20°C° 0 mm 2 m/s 697 mmHg 60%
    Mostrar mais